Groton, CT

7:19 AM EST on February 09, 2016 (GMT -0500)
Groton-New London

Weather History for KGON - February, 2013

Change the Weather History Date:

Sunday, February 17, 2013

  Actual Average Record
Temperature  
Mean Temperature 24 °F -  
Max Temperature 30 °F 38 °F - (-1)
Min Temperature 18 °F 21 °F - (-1)
Degree Days  
Heating Degree Days 41    
Moisture  
Dew Point 21 °F    
Average Humidity 85    
Maximum Humidity 100    
Minimum Humidity 68    
Precipitation  
Precipitation 0.00 in - - ()
Sea Level Pressure  
Sea Level Pressure 29.59 in    
Wind  
Wind Speed 19 mph (NW)    
Max Wind Speed 30 mph    
Max Gust Speed 41 mph    
Visibility 6 miles    
Events Snow    
Averages and records for this station are not official NWS values.
T = Trace of Precipitation, MM = Missing Value Source: NWS Daily Summary

Daily Weather History Graph

Daily Weather History Graph

Search for Another Location

Airport or City:

Trip Planner

Search our weather history database for the weather conditions in past years. The results will help you decide how hot, cold, wet, or windy it might be!

Date:

Astronomy

Feb. 17, 2013 Rise Set
Actual Time 6:40 AM EST 5:24 PM EST
Civil Twilight 6:11 AM EST 5:53 PM EST
Nautical Twilight 5:39 AM EST 6:25 PM EST
Astronomical Twilight 5:07 AM EST 6:57 PM EST
Moon 10:25 AM EST (2/17) 12:22 AM EST (2/17)
Length of Visible Light 11h 41m
Length of Day
10h 44m
Waxing Crescent, 49% of the Moon is Illuminated
Feb 17
Waxing Crescent
Feb 17
First Quarter
Feb 25
Full
Mar 4
Last Quarter
Mar 11
New

Hourly Weather History & Observations

Time (EST) Temp. Windchill Dew Point Humidity Pressure Visibility Wind Dir Wind Speed Gust Speed Precip Events Conditions
12:52 AM 30.2 °F 19.3 °F 26.6 °F 86% 29.65 in 2.0 mi North 15.0 mph 20.7 mph 0.00 in Snow Light Snow
12:56 AM 30.0 °F 20.0 °F 27.0 °F 88% 29.65 in 2.0 mi NNW 12.7 mph 20.7 mph 0.00 in Snow Light Snow
1:46 AM 28.4 °F 18.0 °F 26.6 °F 93% 29.62 in 2.0 mi NNW 12.7 mph - 0.00 in Snow Light Snow
1:56 AM 28.0 °F 17.5 °F 26.1 °F 92% 29.62 in 2.0 mi North 12.7 mph - 0.00 in Snow Light Snow
2:38 AM 26.6 °F 13.4 °F 24.8 °F 93% 29.59 in 1.8 mi NNW 18.4 mph 24.2 mph 0.00 in Snow Light Snow
2:56 AM 26.1 °F 12.7 °F 23.0 °F 88% 29.59 in 1.2 mi NNW 18.4 mph - 0.00 in Snow Light Snow
3:56 AM 24.1 °F 11.0 °F 21.0 °F 88% 29.59 in 1.5 mi NNW 16.1 mph 31.1 mph 0.00 in Snow Light Snow
4:56 AM 23.0 °F 8.7 °F 18.0 °F 81% 29.57 in 1.8 mi NNW 18.4 mph 24.2 mph 0.00 in Snow Light Snow
5:56 AM 21.9 °F 7.8 °F 19.0 °F 89% 29.53 in 1.2 mi NNW 17.3 mph 28.8 mph 0.00 in Snow Light Snow
6:22 AM 21.2 °F 5.2 °F 17.6 °F 86% 29.51 in 1.8 mi NNW 21.9 mph 29.9 mph 0.00 in Snow Light Snow
6:56 AM 21.9 °F 5.8 °F 15.1 °F 75% 29.50 in 3.0 mi NNW 23.0 mph 33.4 mph 0.00 in Snow Light Snow
7:56 AM 23.0 °F 8.7 °F 14.0 °F 68% 29.49 in 3.0 mi NNW 18.4 mph 29.9 mph 0.00 in Snow Light Snow
8:56 AM 24.1 °F 10.6 °F 15.1 °F 69% 29.49 in 7.0 mi NW 17.3 mph 33.4 mph 0.00 in   Overcast
9:53 AM 23.0 °F 6.0 °F - N/A% 29.48 in 2.0 mi NW 27.6 mph 36.8 mph N/A   Overcast
9:56 AM 23.0 °F 6.9 °F - N/A% 29.48 in 7.0 mi NW 24.2 mph 36.8 mph N/A   Overcast
10:56 AM 24.1 °F 8.7 °F - N/A% 29.49 in 10.0 mi NW 23.0 mph 39.1 mph N/A   Overcast
11:56 AM 25.0 °F 9.9 °F - N/A% 29.50 in 10.0 mi WNW 23.0 mph 31.1 mph N/A   Clear
12:56 PM 27.0 °F 11.9 °F - N/A% 29.51 in 5.0 mi NNW 25.3 mph 38.0 mph N/A   Clear
1:56 PM 28.0 °F 13.9 °F - N/A% 29.53 in 10.0 mi WNW 23.0 mph 35.7 mph N/A   Clear
2:56 PM 27.0 °F 11.9 °F - N/A% 29.55 in 9.0 mi WNW 25.3 mph 38.0 mph N/A   Clear
3:56 PM 27.0 °F 11.0 °F - N/A% 29.58 in 10.0 mi NW 28.8 mph 39.1 mph N/A   Clear
4:56 PM 26.1 °F 10.1 °F - N/A% 29.61 in 10.0 mi WNW 27.6 mph 36.8 mph N/A   Clear
5:56 PM 25.0 °F 10.9 °F - N/A% 29.65 in 10.0 mi WNW 19.6 mph 35.7 mph N/A   Clear
6:56 PM 24.1 °F 10.6 °F - N/A% 29.69 in 10.0 mi NW 17.3 mph 27.6 mph N/A   Clear
7:56 PM 21.9 °F 5.5 °F - N/A% 29.71 in 10.0 mi WNW 24.2 mph 33.4 mph N/A   Clear
8:56 PM 19.9 °F 3.9 °F - N/A% 29.73 in 10.0 mi WNW 20.7 mph 36.8 mph N/A   Clear
9:56 PM 19.0 °F 0.0 °F - N/A% 29.75 in 10.0 mi WNW 29.9 mph 41.4 mph N/A   Clear
10:56 PM 18.0 °F -0.2 °F - N/A% 29.77 in 10.0 mi WNW 25.3 mph 39.1 mph N/A   Clear
11:56 PM 18.0 °F -0.8 °F 18.0 °F 100% 29.80 in 10.0 mi WNW 27.6 mph 35.7 mph N/A   Clear